sat.trackr.live / text

‹ back to catalog

STARLINK-34782

NORAD 65358 · 2025-190H

PAYLOAD ACTIVE UNKNOWN

§ Identity

Operator
Country
US
Launch date
2025-08-28
Launch site
AFETR
Launch vehicle
Mass (kg)
RCS (m²)

Purposes: comms

External: N2YO · Heavens-Above · Gunter

§ Orbital elements

Epoch: 2026-05-25T01:36:41.082624Z

Period
94.11 min
Inclination
53.1590°
Eccentricity
0.0001245
Mean motion
15.30200829 rev/d
Perigee alt
474.4 km
Apogee alt
476.1 km
Semi-major
6,853.3 km
B*
1.8509e-4
RAAN
173.0796°
Arg perigee
78.2477°
Mean anomaly
281.8663°
Rev number
4,145

§ Raw data

STARLINK-347821 65358U 25190H   26145.06714216  .00005127  00000+0  18509-3 0  99992 65358  53.1590 173.0796 0001245  78.2477 281.8663 15.30200829 41450

JSON: /api/v1/satellites/65358 · /tle

For live sub-satellite position, see the globe view (requires WebGL).

§ Visibility from observer

Set your observer location to see the next 7 days of passes ≥ 10°. The values pass through the URL so the page stays shareable.

No JS? Fill the form by hand. The geolocation button needs JavaScript.